Tracking 18871 objects as of 13-Dec-2017
HD Live streaming from Space Station
objects crossing your sky now

GORIZONT 30

Track GORIZONT 30 now!
GORIZONT 30 is classified as:


NORAD ID: 23108
Int'l Code: 1994-030A
Perigee: 35,761.0 km
Apogee: 35,819.2 km
Inclination: 14.8 °
Period: 1,435.9 minutes
Semi major axis: 42161 km
RCS: 12.5892 m2 (large)
Launch date: May 20, 1994
Source: Commonwealth of Independent States (former USSR) (CIS)
Launch site: TYURATAM MISSILE AND SPACE COMPLEX (TTMTR)
aabbcc
Your satellite tracking list
Your tracking list is empty




NASA's NSSDC Master Catalog

Two Line Element Set (TLE):
1 23108U 94030A   17345.43498135 +.00000018 +00000-0 +00000-0 0  9996
2 23108 014.7502 014.6567 0006912 242.0901 160.5203 01.00284765086295
Source of the keplerian elements: AFSPC